NOAA Logo National Centers for Environmental Information

formerly the National Oceanographic Data Center (NODC)...  more on NCEI

NOAA Satellite and Information Service

CRUISE INFORMATION RECORD AND DATA
 
NODC Cruise 31-25665 Information
WOD CRUISE REFERENCE #31025665
DATA:
in WOD format 31025665_XBT.dat
31025665_CTD.dat
in 'csv' format 31025665_XBT.csv
31025665_CTD.csv
METADATA:
COUNTRYUNITED STATES (31)
NODC ACCESSION NUMBER (XBT)46703
SHIP NAMEOCEANUS
INSTITUTEUNIVERSITY OF RHODE ISLAND; GSO (NARRAGANSETT; RI)
PROJECTSYNOPTIC OCEAN PREDICTION (SYNOP)
ORIGINATORS CRUISE CODE (XBT)OC210
PRIMARY INVESTIGATORS 
All ParametersWATTS; DR. D. RANDOLPH
All ParametersBANE; JOHN H. JR.
DATE OF FIRST CAST8/ 9/1989
DATE OF LAST CAST8/31/1989
TOTAL NUMBER OF CASTS216
Temperature [t] PROFILES216
Salinity [s] PROFILES14
Pressure [w] PROFILES14
UNIQUE CAST #LATITUDELONGITUDEDATETIMEPROBE TYPE
1156182937.028-73.7118/9/198917.300XBT
1156183036.076-73.9498/9/198922.267XBT
1156183135.750-74.4688/10/19891.383XBT
1156183235.613-74.2348/10/19893.017XBT
1156183335.617-74.2338/10/19895.800XBT
1156183435.484-74.0448/10/19897.450XBT
1156183535.501-74.0608/10/198910.117XBT
1156183635.312-74.6138/10/198916.933XBT
1156183734.969-74.4168/10/198922.933XBT
1156183834.970-74.4128/11/19891.550XBT
1156183935.766-73.5568/11/19897.300XBT
1156184035.200-73.6668/11/198913.233XBT
1156184135.199-73.6688/11/198916.200XBT
1156184235.344-73.8488/11/198917.317XBT
1156184335.344-73.8488/11/198919.817XBT
1156139235.299-73.6898/12/198913.033CTD
1156139335.299-73.6898/12/198913.033CTD
1156184435.299-73.6898/12/198913.033XBT
1156184535.300-73.6878/12/198913.117XBT
1156139435.782-73.5138/12/198916.083CTD
1156139535.782-73.5138/12/198916.083CTD
1156184635.782-73.5138/12/198916.083XBT
1156184735.783-73.5088/12/198916.150XBT
1156184835.785-73.5038/12/198916.233XBT
1156184935.788-73.4948/12/198916.317XBT
1156185035.770-73.5508/12/198917.967XBT
1156185136.074-73.9488/12/198920.950XBT
1156139636.075-73.9448/12/198921.383CTD
1156139736.075-73.9448/12/198921.383CTD
1156185236.075-73.9448/12/198921.383XBT
1156185336.075-73.9438/12/198921.467XBT
1156185436.075-73.9398/12/198921.717XBT
1156185536.076-73.9388/12/198921.783XBT
1156185635.752-74.4658/13/19891.317XBT
1156185735.203-74.7318/13/19896.283XBT
1156185837.408-69.7838/14/19892.050XBT
1156185937.409-69.7868/14/19895.100XBT
1156186036.703-69.5668/14/19898.967XBT
1156186136.700-69.5678/14/198911.817XBT
1156186237.181-68.2798/14/198917.733XBT
1156186337.174-68.2898/14/198920.950XBT
1156139837.174-68.2898/14/198920.950CTD
1156139937.174-68.2898/14/198920.950CTD
1156186437.174-68.2878/14/198921.067XBT
1156186537.172-68.2848/14/198921.333XBT
1156186637.171-68.2848/14/198921.417XBT
1156186737.179-68.2908/14/198921.833XBT
1156186837.663-68.5908/15/19891.317XBT
1156186938.167-68.7248/15/19895.583XBT
1156187038.431-69.0318/15/19899.300XBT
1156187138.630-68.9008/15/198913.333XBT
1156187238.631-68.9038/15/198913.417XBT
1156187338.169-68.7258/15/198917.600XBT
1156187437.662-68.5878/15/198921.550XBT
1156187537.597-68.7028/15/198922.200XBT
1156187637.533-68.7998/15/198922.717XBT
1156187737.476-68.9008/15/198923.267XBT
1156187837.416-69.0268/15/198923.883XBT
1156187937.349-69.1488/16/19890.533XBT
1156188037.292-69.2508/16/19891.067XBT
1156188137.172-69.3818/16/19891.900XBT
1156188237.056-69.5008/16/19892.683XBT
1156188336.929-69.6378/16/19893.600XBT
1156188436.800-69.7678/16/19894.517XBT
1156188536.702-69.5658/16/19895.467XBT
1156188636.669-69.3858/16/19896.167XBT
1156188736.633-69.2058/16/19896.850XBT
1156188836.603-69.0428/16/19897.450XBT
1156188936.578-68.9218/16/19897.867XBT
1156189036.562-68.7978/16/19898.333XBT
1156189136.553-68.6758/16/19898.783XBT
1156189236.536-68.5548/16/19899.250XBT
1156189336.508-68.4148/16/19899.767XBT
1156189436.484-68.2948/16/198910.200XBT
1156189536.447-68.1568/16/198910.867XBT
1156189636.432-67.9698/16/198911.633XBT
1156189736.418-67.7988/16/198912.417XBT
1156189836.418-67.7998/16/198916.050XBT
1156189936.352-67.6238/16/198916.900XBT
1156190036.306-67.4678/16/198917.583XBT
1156190136.272-67.3498/16/198918.067XBT
1156190236.301-67.1878/16/198918.667XBT
1156190336.373-67.0068/16/198919.667XBT
1156140036.373-67.0068/16/198919.667CTD
1156140136.373-67.0068/16/198919.667CTD
1156190436.375-67.0038/16/198919.733XBT
1156190536.388-66.9898/16/198920.050XBT
1156190636.391-66.9858/16/198920.117XBT
1156190736.537-67.0568/16/198921.167XBT
1156190836.651-67.1688/16/198921.833XBT
1156190936.768-67.3188/16/198922.600XBT
1156191036.961-67.4328/16/198923.550XBT
1156191137.140-67.5438/17/19890.467XBT
1156191237.266-67.4538/17/19891.350XBT
1156191337.309-67.3258/17/19892.000XBT
1156191437.400-67.1668/17/19892.783XBT
1156191537.450-67.0338/17/19893.433XBT
1156191637.464-67.2478/17/19894.183XBT
1156191737.465-67.4368/17/19894.817XBT
1156191837.463-67.6048/17/19895.383XBT
1156191937.458-67.7748/17/19895.950XBT
1156192037.444-67.9418/17/19896.533XBT
1156192137.419-68.1598/17/19897.183XBT
1156192237.409-68.2768/17/19897.850XBT
1156192337.403-68.4448/17/19898.600XBT
1156192437.400-68.6138/17/19899.433XBT
1156192537.405-68.7798/17/198910.283XBT
1156192637.404-68.9048/17/198910.950XBT
1156192737.408-69.0738/17/198911.867XBT
1156192837.476-68.9038/17/198912.833XBT
1156192937.534-68.7558/17/198913.417XBT
1156193037.597-68.6088/17/198914.033XBT
1156193137.661-68.4668/17/198914.667XBT
1156193237.741-68.3138/17/198915.367XBT
1156193337.756-68.1878/17/198915.900XBT
1156193437.777-68.0648/17/198916.417XBT
1156193537.792-67.9408/17/198916.967XBT
1156193637.827-67.8078/17/198917.550XBT
1156193737.882-67.6328/17/198918.333XBT
1156193837.929-67.4738/17/198919.050XBT
1156193937.960-67.3088/17/198919.783XBT
1156194037.992-67.1458/17/198920.467XBT
1156194138.031-66.9828/17/198921.400XBT
1156140238.031-66.9828/17/198921.400CTD
1156140338.031-66.9828/17/198921.400CTD
1156194238.031-66.9828/17/198921.467XBT
1156194338.030-66.9838/17/198921.583XBT
1156194438.030-66.9858/17/198921.767XBT
1156194538.029-66.9858/17/198921.833XBT
1156194638.029-66.9858/17/198921.983XBT
1156194738.152-67.1668/17/198923.183XBT
1156194838.237-67.2848/17/198923.783XBT
1156194938.318-67.3968/18/19890.350XBT
1156195038.402-67.5078/18/19890.917XBT
1156195138.486-67.6338/18/19891.417XBT
1156195238.551-67.7288/18/19891.883XBT
1156195338.627-67.8398/18/19892.417XBT
1156195438.703-67.9748/18/19893.067XBT
1156195538.793-68.1068/18/19893.683XBT
1156195638.831-68.2088/18/19894.100XBT
1156195738.881-68.3658/18/19894.750XBT
1156195838.938-68.5208/18/19895.367XBT
1156195939.000-68.6728/18/19896.000XBT
1156196039.050-68.8828/18/19896.767XBT
1156196138.931-68.9038/18/19897.367XBT
1156196238.781-68.9118/18/19898.083XBT
1156196338.631-68.9038/18/19898.867XBT
1156196438.535-68.8678/18/19899.400XBT
1156196538.424-68.8198/18/198910.033XBT
1156196638.297-68.7688/18/198910.733XBT
1156196738.170-68.7248/18/198911.417XBT
1156196838.047-68.8498/18/198912.183XBT
1156196937.948-68.9628/18/198912.833XBT
1156197037.842-69.0658/18/198913.517XBT
1156197137.737-69.1678/18/198914.250XBT
1156197237.636-69.2778/18/198914.967XBT
1156197337.535-69.3908/18/198915.717XBT
1156197437.437-69.5008/18/198916.467XBT
1156197537.334-69.6068/18/198917.233XBT
1156197637.236-69.7128/18/198918.200XBT
1156140437.236-69.7088/18/198918.283CTD
1156140537.236-69.7088/18/198918.283CTD
1156197737.236-69.7088/18/198918.283XBT
1156197837.236-69.7068/18/198918.333XBT
1156197937.235-69.7038/18/198918.417XBT
1156198037.236-69.7008/18/198918.500XBT
1156198137.236-69.6948/18/198918.650XBT
1156198237.407-69.7858/18/198919.800XBT
1156198337.533-69.7868/18/198920.417XBT
1156198437.668-69.7828/18/198921.067XBT
1156198537.799-69.7978/18/198921.733XBT
1156198637.957-69.8128/18/198922.500XBT
1156198738.066-69.8048/18/198923.083XBT
1156198838.243-69.7638/18/198923.983XBT
1156198938.304-69.7158/19/19890.350XBT
1156199038.409-69.6178/19/19891.000XBT
1156199138.519-69.5208/19/19891.667XBT
1156199238.628-69.4248/19/19892.333XBT
1156199338.759-69.3808/19/19893.117XBT
1156199438.947-69.3108/19/19893.900XBT
1156199539.112-69.2468/19/19894.700XBT
1156199639.266-69.2008/19/19895.417XBT
1156199737.949-69.9648/23/19899.450XBT
1156199837.791-69.4058/23/198911.000XBT
1156199937.663-68.5888/23/198913.800XBT
1156200037.791-67.9428/23/198916.267XBT
1156200138.325-67.9668/23/198923.700XBT
1156200238.794-68.1078/24/19891.700XBT
1156200339.167-67.7858/24/19893.800XBT
1156200438.778-67.3768/24/19896.000XBT
1156200538.149-67.1668/24/19899.200XBT
1156200637.632-67.0128/25/19896.300XBT
1156200737.300-67.6638/25/198913.067XBT
1156200837.180-68.2928/26/19890.250XBT
1156200936.672-68.2588/26/19892.183XBT
1156201036.415-67.7978/26/19893.767XBT
1156201136.829-67.4578/26/19896.017XBT
1156201236.998-66.9248/26/19898.100XBT
1156201337.663-68.5888/27/19891.683XBT
1156201437.792-69.4058/27/19897.467XBT
1156201535.773-73.5418/29/198916.400XBT
1156201635.501-74.0618/30/19897.617XBT
1156201735.618-74.2358/30/19898.700XBT
1156201835.752-74.4658/30/19899.850XBT
1156201935.618-74.2328/30/198913.633XBT
1156202035.500-74.0608/30/198914.517XBT
1156202135.344-73.8468/30/198915.467XBT
1156202235.200-73.6658/30/198921.183XBT
1156202335.345-73.8488/30/198922.500XBT
1156202435.501-74.0628/30/198923.783XBT
1156202535.617-74.2328/31/19890.817XBT
1156202635.750-73.5528/31/19893.983XBT
1156202735.200-73.6678/31/19896.717XBT
1156202835.345-73.8488/31/19897.883XBT
1156202935.501-74.0618/31/19899.167XBT
1156203035.750-73.5538/31/198911.183XBT


  Last modified:    Thu, 10-Dec-2009 21:04 UTC NCEI.info@noaa.gov
 
Dept. of Commerce - NOAA - NESDIS - NCEI
* Offsite Link Notification
USA.gov - The U.S. Government's Web Portal